Regional Weather Roundup
Issued by NWS

Home | Current Version | Previous Version | Text Only | Print | Product List | Glossary Off
Versions: 1 2 3 4 5 6 7 8 9 10 11 12 13 14 15 16 17 18 19 20 21 22 23 24 25 26 27 28 29 30 31 32 33 34 35 36 37 38 39 40 41 42 43 44 45 46 47 48 49 50

001
ASUS43 KMPX 251310
RWRMN
WEATHER ROUNDUP FOR MINNESOTA
NATIONAL WEATHER SERVICE TWIN CITIES/CHANHASSEN MN
800 AM CDT FRI MAY 25 2018


NOTE: "FAIR" INDICATES FEW OR NO CLOUDS BELOW 12,000 FEET WITH NO
SIGNIFICANT WEATHER AND/OR OBSTRUCTIONS TO VISIBILITY. N/A MEANS
CURRENT SKY AND/OR WEATHER CONDITIONS ARE NOT AVAILABLE.

MNZ060>063-068>070-251400-
   Twin Cities Metro

CITY           SKY/WX    TMP DP  RH WIND       PRES   REMARKS
TWIN CITIES    CLOUDY    69  65  86 S7        29.81S
ST PAUL        FAIR      67  64  90 SE7       29.81F
CRYSTAL        FAIR      69  64  84 S8        29.80S
BLAINE         CLOUDY    70  66  88 S9        29.81S
LAKEVILLE      FAIR      68  64  88 S9        29.82S
EDEN PRAIRIE   FAIR      70  64  81 S10       29.80S
SOUTH ST PAUL  FAIR      66  66 100 SE3       29.81F
LAKE ELMO      FAIR      64  63  94 S7        29.82F
$$
MNZ001>005-007-008-013>017-022>024-027-028-251400-
   Northwest Minnesota

CITY           SKY/WX    TMP DP  RH WIND       PRES   REMARKS
BEMIDJI        FAIR      69  60  71 SW7       29.73S
HALLOCK        FAIR      68  57  68 SW7       29.65S
ROSEAU         FAIR      66  59  77 SW10      29.66S
WARROAD        FAIR      66  61  82 W9        29.66S
THIEF RVR FALL FAIR      65  58  78 SW8       29.71R
CROOKSTON      FAIR      68  57  68 SW6       29.70S
FOSSTON        FAIR      66  55  68 S9        29.73R
DETROIT LAKES  FAIR      70  59  68 S3        29.76S
MOORHEAD       FAIR      68  57  68 SW5       29.74R
PARK RAPIDS    FAIR      69  63  81 SW3       29.75S
MAHNOMEN       FAIR      67  59  73 S9        29.73S
$$
MNZ006-009>011-018-025>026-251400-
   North Central Minnesota

CITY           SKY/WX    TMP DP  RH WIND       PRES   REMARKS
BAUDETTE       FAIR      69  59  70 SW8       29.66R
FLAG ISLAND    FAIR      64  59  82 SE5       29.63R
INTL FALLS     FAIR      68  64  87 SW7       29.68R
WASKISH          N/A     68  61  77 CALM      29.70R
BIG FORK       FAIR      70  63  78 SW9       29.72S
LONGVILLE      FAIR      66  63  88 CALM      29.76R
GRAND RAPIDS   FAIR      68  62  81 SW7       29.76S
CRANE LAKE     FAIR      66  63  88 S5        29.72R
ORR            FAIR      64  59  82 CALM      29.69S
COOK           FAIR      70  63  78 SW7       29.73S
WALKER         FAIR      68  62  79 SW7       29.74S
$$
MNZ012-019>021-037-251400-
   Northeast Minnesota

CITY           SKY/WX    TMP DP  RH WIND       PRES   REMARKS
DULUTH         FAIR      69  61  75 SW13G22   29.76S
ELY            FAIR      68  61  77 SW12      29.74S
HIBBING        FAIR      67  61  81 SW7       29.74S
EVELETH        FAIR      68  63  83 SW9       29.76S
DULUTH HARBOR  FAIR      59  57  94 CALM      29.76R
TWO HARBORS    FAIR      66  63  88 SW5       29.74R
SILVER BAY     FAIR      66  63  88 CALM      29.74R
GRAND MARAIS     N/A     45  44  97 NE3       29.76S
G MARAIS ARPRT FAIR      61  55  82 S5        29.77F
$$
MNZ029>031-032-039>041-046>048-054>057-064-251400-
   West Central Minnesota

CITY           SKY/WX    TMP DP  RH WIND       PRES   REMARKS
FERGUS FALLS   FAIR      70  61  73 W3        29.72S
WHEATON        SUNNY     72  57  60 SW7       29.78S
MORRIS         SUNNY     73  63  68 W6        29.77S
ALEXANDRIA     FAIR      71  62  73 SW8       29.79S
ELBOW LAKE     FAIR      69  62  76 SW6       29.77S
WADENA         FAIR      68  63  83 SW7       29.76R
GLENWOOD       FAIR      70  63  78 SW6       29.79
APPLETON       SUNNY     72  61  68 SW5       29.77S
BENSON         SUNNY     70  63  78 CALM      29.79S
ORTONVILLE     SUNNY     72  61  68 W5        29.78S
MADISON        SUNNY     75  63  64 W5        29.78S
WILLMAR        FAIR      64  61  88 CALM      29.81S
$$
MNZ033>034-036-042>043-049>051-058-059-251400-
   Central Minnesota

CITY           SKY/WX    TMP DP  RH WIND       PRES   REMARKS
ST CLOUD       FAIR      69  62  78 S9        29.79R
SAUK CENTRE    FAIR      65  61  85 CALM      29.79S
PAYNESVILLE    FAIR      68  64  86 SW5       29.79S
PINE RIVER     FAIR      64  59  82 S5        29.79F
BRAINERD       FAIR      69  60  73 S7        29.77R
STAPLES        FAIR      68  61  77 SW7       29.76S
LONG PRAIRIE   FAIR      66  61  82 S7        29.78F
LITTLE FALLS   FAIR      66  63  88 SE5       29.78S
LITCHFIELD     FAIR      72  66  83 CALM      29.80S
BUFFALO        FAIR      69  63  81 SE7       29.81S
MAPLE LAKE     FAIR      70  66  85 S6        29.80S
HUTCHINSON     FAIR      70  67  89 CALM      29.81S
$$
MNZ037-044-045-052-053-251400-
   East Central Minnesota

CITY           SKY/WX    TMP DP  RH WIND       PRES   REMARKS
PRINCETON      FAIR      70  64  83 S8        29.79F
MORA           FAIR      66  59  77 S7        29.81R
CAMBRIDGE      FAIR      72  59  64 S12       29.79F
RUSH CITY      FAIR      67  61  80 S8        29.80F
MOOSE LAKE     FAIR      68  61  77 SW9       29.76S
HINCKLEY       FAIR      68  63  83 S8        29.79S
CLOQUET        FAIR      68  59  73 S8        29.77S
MCGREGOR       FAIR      70  61  73 SW9       29.77S
$$
MNZ071>073-080-081-089-090-097-098-251400-
   Southwest Minnesota

CITY           SKY/WX    TMP DP  RH WIND       PRES   REMARKS
MONTEVIDEO     SUNNY     73  61  64 W3        29.78F
CANBY          SUNNY     74  62  64 SW3       29.80S
MARSHALL       SUNNY     73  63  70 W8        29.81R
REDWOOD FALLS  CLOUDY    70  63  78 W7        29.79S
OLIVIA         PTSUNNY   70  64  83 W5        29.79S
PIPESTONE      SUNNY     70  63  78 CALM      29.84S
WINDOM         PTSUNNY   72  52  49 SW9       29.82F
WORTHINGTON    MOSUNNY   67  63  87 SW9       29.84S
JACKSON        CLOUDY    70  63  78 SW10      29.84S
TRACY          CLOUDY    70  64  81 SW9       29.81S
SLAYTON        HVY RAIN  70  62  76 W8        29.84S
$$
MNZ065>067-074>077-082>085-091>093-251400-
   South Central Minnesota

CITY           SKY/WX    TMP DP  RH WIND       PRES   REMARKS
MANKATO        FAIR      72  64  76 S7        29.82S
NEW ULM        CLOUDY    73  66  78 SW6       29.80S
ST JAMES       CLOUDY    73  64  73 SW10      29.81S
FAIRMONT       CLOUDY    73  65  75 SW12      29.82F
GLENCOE        FAIR      72  72 100 SE5       29.80S
FARIBAULT      FAIR      72  64  78 CALM      29.84S
OWATONNA       FAIR      72  64  78 SE9       29.84F
WASECA         FAIR      72  63  73 S9        29.85F
ALBERT LEA     FAIR      72  61  68 S8        29.84F
$$
MNZ078>079-086>088-094>096-251400-
   Southeast Minnesota

CITY           SKY/WX    TMP DP  RH WIND       PRES   REMARKS
ROCHESTER      FAIR      69  64  84 NE7       29.89S
RED WING       LGT RAIN  64  61  88 SE10      29.82F
STANTON        FAIR      69  64  83 S7        29.82S
DODGE CENTER   FAIR      70  63  78 E10       29.87F
WINONA         FAIR      72  61  68 SE6       29.87F
AUSTIN         FAIR      72  64  78 S9        29.86S
PRESTON        FAIR      71  62  72 W6        29.90R THUNDER
$$
ABBREVIATIONS USED IN REMARKS
   TC - TEMPERATURES IN CELSIUS
  WCI - WIND CHILL INDEX
   HX - HEAT INDEX
  VSB - VISIBILITY
$$




USA.gov is the U.S. government's official web portal to all federal, state and local government web resources and services.